Total_Precipitation_Accumulation
1.29 1.35 1.34 1.20 1.32 1.42 1.34 1.36 1.29 1.09 0.71 0.48 0.28 0.20 0.17 0.15 0.14 0.16 0.16 0.19 0.23 0.28 0.35 0.30 0.33 0.30 0.25 0.25 0.27 0.30 0.31 0.29 0.29 0.29 0.24 0.21 0.20 0.21 0.17 0.17 0.22 0.29 0.36
0.95 0.90 0.83 0.88 0.79 0.81 0.81 0.78 0.78 0.64 0.42 0.28 0.20 0.17 0.13 0.09 0.08 0.07 0.09 0.09 0.12 0.17 0.23 0.31 0.25 0.26 0.26 0.25 0.25 0.27 0.25 0.22 0.24 0.28 0.25 0.18 0.16 0.18 0.12 0.20 0.23 0.27 0.41
0.60 0.51 0.48 0.48 0.62 0.79 0.70 0.52 0.50 0.40 0.28 0.19 0.14 0.12 0.12 0.11 0.09 0.08 0.07 0.08 0.07 0.09 0.14 0.21 0.24 0.27 0.25 0.28 0.32 0.30 0.27 0.21 0.19 0.24 0.29 0.22 0.17 0.19 0.19 0.22 0.24 0.29 0.41
0.32 0.34 0.33 0.34 0.42 0.52 0.51 0.45 0.40 0.34 0.22 0.15 0.11 0.10 0.09 0.09 0.08 0.07 0.07 0.07 0.06 0.07 0.08 0.10 0.15 0.22 0.26 0.33 0.26 0.29 0.30 0.26 0.19 0.19 0.21 0.20 0.21 0.22 0.22 0.24 0.24 0.29 0.36
0.12 0.19 0.21 0.23 0.23 0.23 0.32 0.35 0.41 0.41 0.27 0.20 0.14 0.12 0.10 0.08 0.07 0.07 0.09 0.09 0.10 0.11 0.12 0.12 0.11 0.12 0.19 0.26 0.29 0.35 0.32 0.32 0.27 0.22 0.19 0.20 0.18 0.18 0.17 0.19 0.23 0.23 0.19
0.06 0.10 0.12 0.15 0.17 0.17 0.19 0.23 0.32 0.37 0.28 0.21 0.18 0.18 0.18 0.16 0.14 0.13 0.13 0.15 0.18 0.20 0.19 0.20 0.20 0.20 0.18 0.17 0.19 0.24 0.30 0.35 0.36 0.28 0.22 0.24 0.21 0.16 0.14 0.10 0.12 0.19 0.14
0.03 0.05 0.07 0.09 0.11 0.12 0.11 0.11 0.16 0.21 0.18 0.15 0.14 0.18 0.27 0.33 0.33 0.27 0.24 0.21 0.21 0.23 0.23 0.23 0.24 0.27 0.28 0.25 0.20 0.16 0.20 0.28 0.33 0.31 0.27 0.23 0.18 0.18 0.20 0.15 0.09 0.10 0.09
0.01 0.02 0.04 0.05 0.05 0.06 0.06 0.06 0.09 0.10 0.09 0.08 0.10 0.10 0.14 0.19 0.27 0.34 0.31 0.31 0.32 0.27 0.23 0.21 0.22 0.26 0.30 0.31 0.28 0.22 0.20 0.22 0.26 0.29 0.34 0.29 0.15 0.15 0.20 0.20 0.20 0.16 0.12
0.00 0.00 0.01 0.01 0.02 0.03 0.03 0.03 0.05 0.07 0.06 0.04 0.04 0.04 0.04 0.05 0.08 0.13 0.16 0.21 0.31 0.31 0.24 0.20 0.19 0.22 0.25 0.30 0.31 0.30 0.29 0.27 0.24 0.28 0.35 0.34 0.24 0.17 0.15 0.21 0.26 0.29 0.23
0.00 0.00 0.00 0.00 0.01 0.03 0.03 0.02 0.03 0.04 0.04 0.03 0.02 0.01 0.02 0.03 0.04 0.05 0.05 0.07 0.11 0.15 0.15 0.15 0.15 0.17 0.19 0.23 0.29 0.34 0.40 0.42 0.38 0.34 0.35 0.37 0.35 0.32 0.24 0.23 0.26 0.30 0.30
0.00 0.00 0.00 0.00 0.00 0.01 0.01 0.02 0.03 0.03 0.02 0.02 0.02 0.02 0.02 0.01 0.02 0.03 0.03 0.03 0.03 0.03 0.04 0.06 0.08 0.10 0.12 0.15 0.21 0.27 0.38 0.52 0.59 0.57 0.50 0.45 0.44 0.43 0.37 0.34 0.30 0.30 0.33
0.00 0.00 0.00 0.00 0.00 0.01 0.01 0.01 0.03 0.02 0.01 0.01 0.02 0.02 0.02 0.02 0.03 0.03 0.03 0.03 0.03 0.02 0.02 0.02 0.03 0.03 0.04 0.07 0.11 0.17 0.24 0.37 0.53 0.69 0.72 0.63 0.56 0.51 0.43 0.39 0.37 0.35 0.39
0.00 0.00 0.01 0.00 0.00 0.01 0.01 0.01 0.04 0.04 0.02 0.01 0.01 0.03 0.03 0.03 0.05 0.06 0.05 0.05 0.05 0.04 0.03 0.03 0.03 0.03 0.04 0.06 0.07 0.09 0.11 0.17 0.27 0.44 0.65 0.74 0.72 0.59 0.52 0.46 0.41 0.40 0.40
0.01 0.00 0.01 0.02 0.01 0.01 0.01 0.01 0.01 0.02 0.02 0.03 0.04 0.06 0.07 0.07 0.07 0.07 0.06 0.06 0.07 0.06 0.07 0.07 0.06 0.06 0.05 0.06 0.08 0.09 0.10 0.12 0.14 0.21 0.34 0.52 0.69 0.68 0.61 0.52 0.46 0.46 0.47
0.01 0.01 0.02 0.03 0.03 0.02 0.02 0.02 0.02 0.03 0.04 0.07 0.08 0.09 0.09 0.08 0.09 0.09 0.09 0.10 0.12 0.10 0.12 0.12 0.11 0.10 0.09 0.06 0.09 0.14 0.14 0.17 0.16 0.15 0.17 0.23 0.38 0.53 0.60 0.55 0.51 0.50 0.52
0.02 0.02 0.03 0.03 0.04 0.03 0.03 0.04 0.04 0.05 0.06 0.10 0.13 0.16 0.15 0.14 0.17 0.18 0.17 0.19 0.19 0.20 0.22 0.19 0.17 0.16 0.11 0.10 0.11 0.12 0.16 0.24 0.29 0.27 0.24 0.20 0.18 0.26 0.38 0.47 0.49 0.49 0.48
0.03 0.03 0.04 0.05 0.05 0.05 0.05 0.06 0.05 0.06 0.08 0.10 0.13 0.16 0.19 0.22 0.26 0.27 0.28 0.26 0.26 0.27 0.29 0.27 0.24 0.22 0.22 0.20 0.16 0.11 0.16 0.24 0.33 0.39 0.39 0.24 0.14 0.19 0.26 0.34 0.39 0.40 0.38
0.04 0.04 0.04 0.05 0.05 0.06 0.08 0.09 0.09 0.09 0.11 0.13 0.16 0.18 0.20 0.22 0.26 0.30 0.34 0.37 0.39 0.36 0.34 0.31 0.29 0.29 0.26 0.22 0.17 0.15 0.20 0.25 0.26 0.34 0.42 0.38 0.31 0.30 0.34 0.36 0.35 0.34 0.32
0.05 0.04 0.04 0.05 0.06 0.07 0.08 0.09 0.09 0.10 0.11 0.13 0.15 0.19 0.23 0.25 0.29 0.35 0.42 0.48 0.48 0.41 0.37 0.33 0.34 0.37 0.36 0.31 0.22 0.19 0.26 0.31 0.28 0.31 0.37 0.42 0.42 0.34 0.28 0.34 0.31 0.29 0.30
0.04 0.04 0.03 0.04 0.05 0.06 0.08 0.09 0.11 0.13 0.16 0.18 0.20 0.24 0.28 0.30 0.32 0.34 0.38 0.40 0.42 0.41 0.38 0.34 0.37 0.41 0.42 0.39 0.25 0.20 0.28 0.35 0.35 0.39 0.45 0.48 0.45 0.34 0.24 0.31 0.36 0.31 0.27
0.04 0.03 0.03 0.03 0.05 0.07 0.09 0.12 0.13 0.15 0.16 0.18 0.21 0.23 0.24 0.27 0.29 0.31 0.33 0.37 0.39 0.38 0.36 0.34 0.36 0.41 0.41 0.36 0.23 0.19 0.26 0.33 0.37 0.37 0.40 0.52 0.47 0.36 0.25 0.28 0.34 0.29 0.29
0.03 0.03 0.04 0.05 0.07 0.09 0.12 0.14 0.15 0.15 0.15 0.17 0.20 0.22 0.25 0.28 0.29 0.33 0.34 0.33 0.33 0.31 0.30 0.31 0.32 0.38 0.42 0.33 0.24 0.16 0.19 0.29 0.36 0.46 0.50 0.58 0.55 0.43 0.34 0.30 0.30 0.24 0.22
0.02 0.03 0.04 0.05 0.07 0.10 0.13 0.16 0.17 0.16 0.18 0.21 0.22 0.23 0.24 0.27 0.30 0.35 0.36 0.36 0.37 0.36 0.33 0.30 0.27 0.29 0.38 0.36 0.19 0.13 0.13 0.21 0.34 0.54 0.69 0.73 0.69 0.59 0.49 0.42 0.39 0.30 0.26
0.02 0.03 0.04 0.06 0.07 0.08 0.11 0.15 0.17 0.19 0.21 0.22 0.21 0.21 0.21 0.21 0.25 0.32 0.36 0.37 0.37 0.36 0.33 0.31 0.31 0.31 0.36 0.37 0.32 0.25 0.17 0.17 0.26 0.47 0.66 0.79 0.85 0.81 0.70 0.60 0.55 0.41 0.34
0.02 0.03 0.04 0.05 0.06 0.07 0.09 0.11 0.14 0.19 0.22 0.22 0.21 0.20 0.18 0.19 0.22 0.27 0.29 0.26 0.28 0.25 0.23 0.24 0.26 0.28 0.30 0.25 0.19 0.19 0.19 0.19 0.23 0.39 0.66 0.87 1.01 1.05 1.03 0.91 0.81 0.69 0.57
0.03 0.04 0.04 0.04 0.05 0.05 0.06 0.07 0.10 0.16 0.24 0.27 0.24 0.21 0.19 0.20 0.22 0.23 0.24 0.23 0.20 0.18 0.19 0.20 0.18 0.14 0.15 0.13 0.10 0.09 0.10 0.12 0.18 0.37 0.63 0.86 1.03 1.11 1.22 1.23 1.14 0.98 0.82